This is the latest recevied weather packets stored in our database for station/object N4MGC. If no packets are shown the sender has not sent any weather packets the latest 10 day(s).
| Time | Temp. | Humidity | Pressure | Rain* | Wind** | Luminosity | Snow |
|---|---|---|---|---|---|---|---|
| 1777570922 | 20° C | 62% | 1014.6 hPa | 0 mm | - | 528 W/m² | - |
| 1777570618 | 20.56° C | 60% | 1014.4 hPa | 0 mm | - | 514 W/m² | - |
| 1777570315 | 20° C | 66% | 1014.5 hPa | 0 mm | - | 544 W/m² | - |
| 1777570010 | 18.89° C | 64% | 1014.9 hPa | 0 mm | - | 481 W/m² | - |
| 1777569707 | 19.44° C | 64% | 1014.7 hPa | 0 mm | - | 421 W/m² | - |
| 1777569402 | 19.44° C | 65% | 1014.6 hPa | 0 mm | - | 523 W/m² | - |
| 1777569099 | 19.44° C | 63% | 1014.8 hPa | 0 mm | - | 521 W/m² | - |
| 1777568796 | 19.44° C | 65% | 1014.8 hPa | 0 mm | - | 642 W/m² | - |
| 1777568494 | 19.44° C | 66% | 1014.8 hPa | 0 mm | - | 602 W/m² | - |
| 1777568189 | 18.89° C | 68% | 1015.1 hPa | 0 mm | - | 460 W/m² | - |
| 1777567887 | 19.44° C | 64% | 1014.6 hPa | 0 mm | - | 632 W/m² | - |
| 1777567583 | 19.44° C | 68% | 1014.8 hPa | 0 mm | - | 664 W/m² | - |
| 1777567280 | 18.89° C | 66% | 1015.1 hPa | 0 mm | - | 568 W/m² | - |
| 1777566979 | 19.44° C | 67% | 1014.9 hPa | 0 mm | - | 843 W/m² | - |
| 1777566676 | 18.89° C | 69% | 1015 hPa | 0 mm | - | 609 W/m² | - |
| 1777566374 | 18.89° C | 67% | 1015.1 hPa | 0 mm | - | 646 W/m² | - |
| 1777566071 | 19.44° C | 66% | 1015 hPa | 0 mm | - | 651 W/m² | - |
| 1777565766 | 19.44° C | 66% | 1014.9 hPa | 0 mm | - | 708 W/m² | - |
| 1777565463 | 18.33° C | 70% | 1014.7 hPa | 0 mm | - | 697 W/m² | - |
| 1777565159 | 18.89° C | 68% | 1015.1 hPa | 0 mm | - | 613 W/m² | - |
| 1777564855 | 18.89° C | 73% | 1014.8 hPa | 0 mm | - | 609 W/m² | - |
| 1777564550 | 18.89° C | 68% | 1014.9 hPa | 0 mm | - | 606 W/m² | - |
| 1777564246 | 18.33° C | 68% | 1014.7 hPa | 0 mm | - | 575 W/m² | - |
| 1777563942 | 18.33° C | 68% | 1015 hPa | 0 mm | - | 757 W/m² | - |
| 1777563639 | 18.89° C | 70% | 1014.9 hPa | 0 mm | - | 739 W/m² | - |
* Rain latest hour (hover to see other rain measurements)
** Current wind speed in m/s (hover to see current wind gust speed)